Location: Ripley
(48.3812°N, 115.4473°W)
Time: 01:23:45
(UTC+00:00)

EO-79 - Visible Passes

Search period start: 30 June 2022 00:00
Search period end: 10 July 2022 00:00
Orbit: 587 x 605 km, 98.0° (Epoch: 29 June)

Date Brightness Start Highest point End Pass type
(mag) Time Alt. Az. Time Alt. Az. Time Alt. Az.
30 Jun ? 08:52:32 10° NNE 08:56:21 33° E 08:58:43 19° SSE visible
30 Jun ? 10:28:18 10° N 10:31:54 28° WNW 10:35:23 11° WSW visible
01 Jul ? 09:02:19 10° NNE 09:06:20 41° E 09:08:43 21° SSE visible
01 Jul ? 10:38:24 10° NNW 10:41:44 23° WNW 10:45:05 10° WSW visible
02 Jul ? 09:12:08 10° NNE 09:16:17 52° E 09:18:44 23° SSE visible
02 Jul ? 10:48:34 10° NNW 10:51:34 19° WNW 10:54:33 10° WSW visible
03 Jul ? 09:21:59 10° NNE 09:26:13 66° ESE 09:28:43 23° S visible
03 Jul ? 10:58:47 10° NNW 11:01:22 16° WNW 11:03:55 10° W visible
04 Jul ? 09:31:52 10° NNE 09:36:08 83° ESE 09:38:43 23° S visible
05 Jul ? 08:08:19 10° ENE 08:09:52 12° E 08:11:25 10° ESE visible
05 Jul ? 09:41:47 10° NNE 09:46:02 79° WNW 09:48:43 22° SSW visible
06 Jul ? 08:17:28 10° NE 08:19:53 15° E 08:22:02 11° ESE visible
06 Jul ? 09:51:44 10° N 09:55:55 63° WNW 09:58:42 20° SSW visible
07 Jul ? 08:26:55 10° NE 08:29:54 18° E 08:32:01 13° SE visible
07 Jul ? 10:01:41 10° N 10:05:48 50° WNW 10:08:41 18° SW visible
08 Jul ? 08:36:30 10° NE 08:39:53 23° E 08:41:59 16° SE visible
08 Jul ? 10:11:40 10° N 10:15:39 40° WNW 10:18:39 16° SW visible
09 Jul ? 08:46:11 10° NE 08:49:51 28° E 08:51:58 19° SE visible
09 Jul ? 10:21:42 10° N 10:25:29 32° WNW 10:28:38 14° SW visible
